Index of /20260428/WXO-DD/model_rdps/10km/00/031
Name Last modified Size Description
Parent Directory -
20260428T00Z_MSC_RDPS_AbsoluteVorticity_IsbL-0250_RLatLon0.09_PT031H.grib2 2026-04-28 02:50 633K
20260428T00Z_MSC_RDPS_AbsoluteVorticity_IsbL-0500_RLatLon0.09_PT031H.grib2 2026-04-28 02:50 575K
20260428T00Z_MSC_RDPS_AbsoluteVorticity_IsbL-0700_RLatLon0.09_PT031H.grib2 2026-04-28 02:50 617K
20260428T00Z_MSC_RDPS_AbsoluteVorticity_IsbL-0850_RLatLon0.09_PT031H.grib2 2026-04-28 02:50 772K
20260428T00Z_MSC_RDPS_AirTemp_AGL-120m_RLatLon0.09_PT031H.grib2 2026-04-28 02:50 388K
20260428T00Z_MSC_RDPS_AirTemp_AGL-2m_RLatLon0.09_PT031H.grib2 2026-04-28 02:50 622K
20260428T00Z_MSC_RDPS_AirTemp_AGL-40m_RLatLon0.09_PT031H.grib2 2026-04-28 02:50 404K
20260428T00Z_MSC_RDPS_AirTemp_AGL-80m_RLatLon0.09_PT031H.grib2 2026-04-28 02:50 395K
20260428T00Z_MSC_RDPS_AirTemp_IsbL-0001_RLatLon0.09_PT031H.grib2 2026-04-28 02:50 255K
20260428T00Z_MSC_RDPS_AirTemp_IsbL-0005_RLatLon0.09_PT031H.grib2 2026-04-28 02:50 296K
20260428T00Z_MSC_RDPS_AirTemp_IsbL-0010_RLatLon0.09_PT031H.grib2 2026-04-28 02:50 305K
20260428T00Z_MSC_RDPS_AirTemp_IsbL-0020_RLatLon0.09_PT031H.grib2 2026-04-28 02:50 318K
20260428T00Z_MSC_RDPS_AirTemp_IsbL-0030_RLatLon0.09_PT031H.grib2 2026-04-28 02:50 340K
20260428T00Z_MSC_RDPS_AirTemp_IsbL-0050_RLatLon0.09_PT031H.grib2 2026-04-28 02:50 318K
20260428T00Z_MSC_RDPS_AirTemp_IsbL-0100_RLatLon0.09_PT031H.grib2 2026-04-28 02:50 431K
20260428T00Z_MSC_RDPS_AirTemp_IsbL-0150_RLatLon0.09_PT031H.grib2 2026-04-28 02:50 432K
20260428T00Z_MSC_RDPS_AirTemp_IsbL-0175_RLatLon0.09_PT031H.grib2 2026-04-28 02:50 419K
20260428T00Z_MSC_RDPS_AirTemp_IsbL-0200_RLatLon0.09_PT031H.grib2 2026-04-28 02:50 423K
20260428T00Z_MSC_RDPS_AirTemp_IsbL-0225_RLatLon0.09_PT031H.grib2 2026-04-28 02:50 425K
20260428T00Z_MSC_RDPS_AirTemp_IsbL-0250_RLatLon0.09_PT031H.grib2 2026-04-28 02:50 435K
20260428T00Z_MSC_RDPS_AirTemp_IsbL-0275_RLatLon0.09_PT031H.grib2 2026-04-28 02:50 416K
20260428T00Z_MSC_RDPS_AirTemp_IsbL-0300_RLatLon0.09_PT031H.grib2 2026-04-28 02:50 421K
20260428T00Z_MSC_RDPS_AirTemp_IsbL-0350_RLatLon0.09_PT031H.grib2 2026-04-28 02:50 431K
20260428T00Z_MSC_RDPS_AirTemp_IsbL-0400_RLatLon0.09_PT031H.grib2 2026-04-28 02:50 432K
20260428T00Z_MSC_RDPS_AirTemp_IsbL-0450_RLatLon0.09_PT031H.grib2 2026-04-28 02:50 402K
20260428T00Z_MSC_RDPS_AirTemp_IsbL-0500_RLatLon0.09_PT031H.grib2 2026-04-28 02:50 412K
20260428T00Z_MSC_RDPS_AirTemp_IsbL-0550_RLatLon0.09_PT031H.grib2 2026-04-28 02:50 428K
20260428T00Z_MSC_RDPS_AirTemp_IsbL-0600_RLatLon0.09_PT031H.grib2 2026-04-28 02:50 443K
20260428T00Z_MSC_RDPS_AirTemp_IsbL-0650_RLatLon0.09_PT031H.grib2 2026-04-28 02:50 457K
20260428T00Z_MSC_RDPS_AirTemp_IsbL-0700_RLatLon0.09_PT031H.grib2 2026-04-28 02:50 375K
20260428T00Z_MSC_RDPS_AirTemp_IsbL-0750_RLatLon0.09_PT031H.grib2 2026-04-28 02:50 406K
20260428T00Z_MSC_RDPS_AirTemp_IsbL-0800_RLatLon0.09_PT031H.grib2 2026-04-28 02:50 450K
20260428T00Z_MSC_RDPS_AirTemp_IsbL-0850_RLatLon0.09_PT031H.grib2 2026-04-28 02:50 500K
20260428T00Z_MSC_RDPS_AirTemp_IsbL-0875_RLatLon0.09_PT031H.grib2 2026-04-28 02:50 519K
20260428T00Z_MSC_RDPS_AirTemp_IsbL-0900_RLatLon0.09_PT031H.grib2 2026-04-28 02:50 526K
20260428T00Z_MSC_RDPS_AirTemp_IsbL-0925_RLatLon0.09_PT031H.grib2 2026-04-28 02:50 522K
20260428T00Z_MSC_RDPS_AirTemp_IsbL-0950_RLatLon0.09_PT031H.grib2 2026-04-28 02:50 523K
20260428T00Z_MSC_RDPS_AirTemp_IsbL-0970_RLatLon0.09_PT031H.grib2 2026-04-28 02:50 513K
20260428T00Z_MSC_RDPS_AirTemp_IsbL-0985_RLatLon0.09_PT031H.grib2 2026-04-28 02:50 499K
20260428T00Z_MSC_RDPS_AirTemp_IsbL-1000_RLatLon0.09_PT031H.grib2 2026-04-28 02:50 481K
20260428T00Z_MSC_RDPS_AirTemp_IsbL-1015_RLatLon0.09_PT031H.grib2 2026-04-28 02:50 481K
20260428T00Z_MSC_RDPS_Albedo_Sfc_RLatLon0.09_PT031H.grib2 2026-04-28 02:50 161K
20260428T00Z_MSC_RDPS_CAPE_Sfc_RLatLon0.09_PT031H.grib2 2026-04-28 02:50 1.7M
20260428T00Z_MSC_RDPS_CIN_Sfc_RLatLon0.09_PT031H.grib2 2026-04-28 02:50 1.1M
20260428T00Z_MSC_RDPS_CloudWater_EAtm_RLatLon0.09_PT031H.grib2 2026-04-28 02:50 218K
20260428T00Z_MSC_RDPS_ConvectivePrecip-Accum_Sfc_RLatLon0.09_PT031H.grib2 2026-04-28 02:50 938K
20260428T00Z_MSC_RDPS_DewPointDepression_AGL-2m_RLatLon0.09_PT031H.grib2 2026-04-28 02:50 390K
20260428T00Z_MSC_RDPS_DewPointDepression_IsbL-0001_RLatLon0.09_PT031H.grib2 2026-04-28 02:50 193
20260428T00Z_MSC_RDPS_DewPointDepression_IsbL-0005_RLatLon0.09_PT031H.grib2 2026-04-28 02:50 193
20260428T00Z_MSC_RDPS_DewPointDepression_IsbL-0010_RLatLon0.09_PT031H.grib2 2026-04-28 02:50 193
20260428T00Z_MSC_RDPS_DewPointDepression_IsbL-0020_RLatLon0.09_PT031H.grib2 2026-04-28 02:50 193
20260428T00Z_MSC_RDPS_DewPointDepression_IsbL-0030_RLatLon0.09_PT031H.grib2 2026-04-28 02:50 193
20260428T00Z_MSC_RDPS_DewPointDepression_IsbL-0050_RLatLon0.09_PT031H.grib2 2026-04-28 02:50 84K
20260428T00Z_MSC_RDPS_DewPointDepression_IsbL-0100_RLatLon0.09_PT031H.grib2 2026-04-28 02:50 132K
20260428T00Z_MSC_RDPS_DewPointDepression_IsbL-0150_RLatLon0.09_PT031H.grib2 2026-04-28 02:50 151K
20260428T00Z_MSC_RDPS_DewPointDepression_IsbL-0175_RLatLon0.09_PT031H.grib2 2026-04-28 02:50 178K
20260428T00Z_MSC_RDPS_DewPointDepression_IsbL-0200_RLatLon0.09_PT031H.grib2 2026-04-28 02:50 216K
20260428T00Z_MSC_RDPS_DewPointDepression_IsbL-0225_RLatLon0.09_PT031H.grib2 2026-04-28 02:50 265K
20260428T00Z_MSC_RDPS_DewPointDepression_IsbL-0250_RLatLon0.09_PT031H.grib2 2026-04-28 02:50 303K
20260428T00Z_MSC_RDPS_DewPointDepression_IsbL-0275_RLatLon0.09_PT031H.grib2 2026-04-28 02:50 310K
20260428T00Z_MSC_RDPS_DewPointDepression_IsbL-0300_RLatLon0.09_PT031H.grib2 2026-04-28 02:50 329K
20260428T00Z_MSC_RDPS_DewPointDepression_IsbL-0350_RLatLon0.09_PT031H.grib2 2026-04-28 02:50 332K
20260428T00Z_MSC_RDPS_DewPointDepression_IsbL-0400_RLatLon0.09_PT031H.grib2 2026-04-28 02:50 341K
20260428T00Z_MSC_RDPS_DewPointDepression_IsbL-0450_RLatLon0.09_PT031H.grib2 2026-04-28 02:50 348K
20260428T00Z_MSC_RDPS_DewPointDepression_IsbL-0500_RLatLon0.09_PT031H.grib2 2026-04-28 02:50 355K
20260428T00Z_MSC_RDPS_DewPointDepression_IsbL-0550_RLatLon0.09_PT031H.grib2 2026-04-28 02:50 366K
20260428T00Z_MSC_RDPS_DewPointDepression_IsbL-0600_RLatLon0.09_PT031H.grib2 2026-04-28 02:50 372K
20260428T00Z_MSC_RDPS_DewPointDepression_IsbL-0650_RLatLon0.09_PT031H.grib2 2026-04-28 02:50 376K
20260428T00Z_MSC_RDPS_DewPointDepression_IsbL-0700_RLatLon0.09_PT031H.grib2 2026-04-28 02:50 390K
20260428T00Z_MSC_RDPS_DewPointDepression_IsbL-0750_RLatLon0.09_PT031H.grib2 2026-04-28 02:50 409K
20260428T00Z_MSC_RDPS_DewPointDepression_IsbL-0800_RLatLon0.09_PT031H.grib2 2026-04-28 02:50 439K
20260428T00Z_MSC_RDPS_DewPointDepression_IsbL-0850_RLatLon0.09_PT031H.grib2 2026-04-28 02:50 466K
20260428T00Z_MSC_RDPS_DewPointDepression_IsbL-0875_RLatLon0.09_PT031H.grib2 2026-04-28 02:50 468K
20260428T00Z_MSC_RDPS_DewPointDepression_IsbL-0900_RLatLon0.09_PT031H.grib2 2026-04-28 02:50 460K
20260428T00Z_MSC_RDPS_DewPointDepression_IsbL-0925_RLatLon0.09_PT031H.grib2 2026-04-28 02:50 449K
20260428T00Z_MSC_RDPS_DewPointDepression_IsbL-0950_RLatLon0.09_PT031H.grib2 2026-04-28 02:50 443K
20260428T00Z_MSC_RDPS_DewPointDepression_IsbL-0970_RLatLon0.09_PT031H.grib2 2026-04-28 02:50 432K
20260428T00Z_MSC_RDPS_DewPointDepression_IsbL-0985_RLatLon0.09_PT031H.grib2 2026-04-28 02:50 425K
20260428T00Z_MSC_RDPS_DewPointDepression_IsbL-1000_RLatLon0.09_PT031H.grib2 2026-04-28 02:50 419K
20260428T00Z_MSC_RDPS_DewPointDepression_IsbL-1015_RLatLon0.09_PT031H.grib2 2026-04-28 02:50 411K
20260428T00Z_MSC_RDPS_DewPoint_AGL-2m_RLatLon0.09_PT031H.grib2 2026-04-28 02:50 306K
20260428T00Z_MSC_RDPS_DownwardLongwaveRadiationFlux-Accum_Sfc_RLatLon0.09_PT031H.grib2 2026-04-28 02:50 479K
20260428T00Z_MSC_RDPS_DownwardShortwaveRadiationFlux-Accum_NTAtm_RLatLon0.09_PT031H.grib2 2026-04-28 02:50 112K
20260428T00Z_MSC_RDPS_DownwardShortwaveRadiationFlux-Accum_Sfc_RLatLon0.09_PT031H.grib2 2026-04-28 02:50 519K
20260428T00Z_MSC_RDPS_FreezingRain-Accum1h_Sfc_RLatLon0.09_PT031H.grib2 2026-04-28 02:50 31K
20260428T00Z_MSC_RDPS_FreezingRain-Accum_Sfc_RLatLon0.09_PT031H.grib2 2026-04-28 02:50 140K
20260428T00Z_MSC_RDPS_GeopotentialHeight_IsbL-0001_RLatLon0.09_PT031H.grib2 2026-04-28 02:50 237K
20260428T00Z_MSC_RDPS_GeopotentialHeight_IsbL-0005_RLatLon0.09_PT031H.grib2 2026-04-28 02:50 337K
20260428T00Z_MSC_RDPS_GeopotentialHeight_IsbL-0010_RLatLon0.09_PT031H.grib2 2026-04-28 02:50 305K
20260428T00Z_MSC_RDPS_GeopotentialHeight_IsbL-0020_RLatLon0.09_PT031H.grib2 2026-04-28 02:50 304K
20260428T00Z_MSC_RDPS_GeopotentialHeight_IsbL-0030_RLatLon0.09_PT031H.grib2 2026-04-28 02:50 306K
20260428T00Z_MSC_RDPS_GeopotentialHeight_IsbL-0050_RLatLon0.09_PT031H.grib2 2026-04-28 02:50 341K
20260428T00Z_MSC_RDPS_GeopotentialHeight_IsbL-0100_RLatLon0.09_PT031H.grib2 2026-04-28 02:50 288K
20260428T00Z_MSC_RDPS_GeopotentialHeight_IsbL-0150_RLatLon0.09_PT031H.grib2 2026-04-28 02:50 230K
20260428T00Z_MSC_RDPS_GeopotentialHeight_IsbL-0175_RLatLon0.09_PT031H.grib2 2026-04-28 02:50 264K
20260428T00Z_MSC_RDPS_GeopotentialHeight_IsbL-0200_RLatLon0.09_PT031H.grib2 2026-04-28 02:50 267K
20260428T00Z_MSC_RDPS_GeopotentialHeight_IsbL-0225_RLatLon0.09_PT031H.grib2 2026-04-28 02:50 268K
20260428T00Z_MSC_RDPS_GeopotentialHeight_IsbL-0250_RLatLon0.09_PT031H.grib2 2026-04-28 02:50 268K
20260428T00Z_MSC_RDPS_GeopotentialHeight_IsbL-0275_RLatLon0.09_PT031H.grib2 2026-04-28 02:50 267K
20260428T00Z_MSC_RDPS_GeopotentialHeight_IsbL-0300_RLatLon0.09_PT031H.grib2 2026-04-28 02:50 266K
20260428T00Z_MSC_RDPS_GeopotentialHeight_IsbL-0350_RLatLon0.09_PT031H.grib2 2026-04-28 02:50 233K
20260428T00Z_MSC_RDPS_GeopotentialHeight_IsbL-0400_RLatLon0.09_PT031H.grib2 2026-04-28 02:50 230K
20260428T00Z_MSC_RDPS_GeopotentialHeight_IsbL-0450_RLatLon0.09_PT031H.grib2 2026-04-28 02:50 298K
20260428T00Z_MSC_RDPS_GeopotentialHeight_IsbL-0500_RLatLon0.09_PT031H.grib2 2026-04-28 02:50 292K
20260428T00Z_MSC_RDPS_GeopotentialHeight_IsbL-0550_RLatLon0.09_PT031H.grib2 2026-04-28 02:50 288K
20260428T00Z_MSC_RDPS_GeopotentialHeight_IsbL-0600_RLatLon0.09_PT031H.grib2 2026-04-28 02:50 284K
20260428T00Z_MSC_RDPS_GeopotentialHeight_IsbL-0650_RLatLon0.09_PT031H.grib2 2026-04-28 02:50 254K
20260428T00Z_MSC_RDPS_GeopotentialHeight_IsbL-0700_RLatLon0.09_PT031H.grib2 2026-04-28 02:50 252K
20260428T00Z_MSC_RDPS_GeopotentialHeight_IsbL-0750_RLatLon0.09_PT031H.grib2 2026-04-28 02:50 335K
20260428T00Z_MSC_RDPS_GeopotentialHeight_IsbL-0800_RLatLon0.09_PT031H.grib2 2026-04-28 02:50 343K
20260428T00Z_MSC_RDPS_GeopotentialHeight_IsbL-0850_RLatLon0.09_PT031H.grib2 2026-04-28 02:50 353K
20260428T00Z_MSC_RDPS_GeopotentialHeight_IsbL-0875_RLatLon0.09_PT031H.grib2 2026-04-28 02:50 357K
20260428T00Z_MSC_RDPS_GeopotentialHeight_IsbL-0900_RLatLon0.09_PT031H.grib2 2026-04-28 02:50 362K
20260428T00Z_MSC_RDPS_GeopotentialHeight_IsbL-0925_RLatLon0.09_PT031H.grib2 2026-04-28 02:50 366K
20260428T00Z_MSC_RDPS_GeopotentialHeight_IsbL-0950_RLatLon0.09_PT031H.grib2 2026-04-28 02:50 370K
20260428T00Z_MSC_RDPS_GeopotentialHeight_IsbL-0970_RLatLon0.09_PT031H.grib2 2026-04-28 02:50 374K
20260428T00Z_MSC_RDPS_GeopotentialHeight_IsbL-0985_RLatLon0.09_PT031H.grib2 2026-04-28 02:50 382K
20260428T00Z_MSC_RDPS_GeopotentialHeight_IsbL-1000_RLatLon0.09_PT031H.grib2 2026-04-28 02:50 392K
20260428T00Z_MSC_RDPS_GeopotentialHeight_IsbL-1015_RLatLon0.09_PT031H.grib2 2026-04-28 02:50 406K
20260428T00Z_MSC_RDPS_Humidex_Sfc_RLatLon0.09_PT031H.grib2 2026-04-28 02:50 2.4M
20260428T00Z_MSC_RDPS_IcePellets-Accum1h_Sfc_RLatLon0.09_PT031H.grib2 2026-04-28 02:50 6.6K
20260428T00Z_MSC_RDPS_IcePellets-Accum_Sfc_RLatLon0.09_PT031H.grib2 2026-04-28 02:50 21K
20260428T00Z_MSC_RDPS_KIndex_Sfc_RLatLon0.09_PT031H.grib2 2026-04-28 02:50 2.5M
20260428T00Z_MSC_RDPS_LatentHeatNetFlux_Sfc_RLatLon0.09_PT031H.grib2 2026-04-28 02:50 401K
20260428T00Z_MSC_RDPS_LiftedIndex-MU-VT_IsbL-0500_RLatLon0.09_PT031H.grib2 2026-04-28 02:50 2.4M
20260428T00Z_MSC_RDPS_NetLongwaveRadiationFlux-Accum_Sfc_RLatLon0.09_PT031H.grib2 2026-04-28 02:50 616K
20260428T00Z_MSC_RDPS_NetShortwaveRadiationFlux-Accum_Sfc_RLatLon0.09_PT031H.grib2 2026-04-28 02:50 656K
20260428T00Z_MSC_RDPS_PlanetaryBoundaryLayerHeight_Sfc_RLatLon0.09_PT031H.grib2 2026-04-28 02:50 1.1M
20260428T00Z_MSC_RDPS_Precip-Accum1h_Sfc_RLatLon0.09_PT031H.grib2 2026-04-28 02:50 1.1M
20260428T00Z_MSC_RDPS_Precip-Accum_Sfc_RLatLon0.09_PT031H.grib2 2026-04-28 02:50 1.9M
20260428T00Z_MSC_RDPS_PrecipRate_Sfc_RLatLon0.09_PT031H.grib2 2026-04-28 02:50 158K
20260428T00Z_MSC_RDPS_PrecipType-Instant_Sfc_RLatLon0.09_PT031H.grib2 2026-04-28 02:50 547K
20260428T00Z_MSC_RDPS_Pressure-Trend3h_Sfc_RLatLon0.09_PT031H.grib2 2026-04-28 02:50 1.2M
20260428T00Z_MSC_RDPS_Pressure_MSL_RLatLon0.09_PT031H.grib2 2026-04-28 02:50 324K
20260428T00Z_MSC_RDPS_Pressure_PVU-1.5_RLatLon0.09_PT031H.grib2 2026-04-28 02:50 2.5M
20260428T00Z_MSC_RDPS_Pressure_PVU-1_RLatLon0.09_PT031H.grib2 2026-04-28 02:50 2.4M
20260428T00Z_MSC_RDPS_Pressure_PVU-2_RLatLon0.09_PT031H.grib2 2026-04-28 02:50 2.4M
20260428T00Z_MSC_RDPS_Pressure_Sfc_RLatLon0.09_PT031H.grib2 2026-04-28 02:50 500K
20260428T00Z_MSC_RDPS_RadiativeTemp_Sfc_RLatLon0.09_PT031H.grib2 2026-04-28 02:50 298K
20260428T00Z_MSC_RDPS_Rain-Accum1h_Sfc_RLatLon0.09_PT031H.grib2 2026-04-28 02:50 479K
20260428T00Z_MSC_RDPS_Rain-Accum_Sfc_RLatLon0.09_PT031H.grib2 2026-04-28 02:50 1.4M
20260428T00Z_MSC_RDPS_RelativeHumidity_AGL-2m_RLatLon0.09_PT031H.grib2 2026-04-28 02:50 1.0M
20260428T00Z_MSC_RDPS_RelativeHumidity_IsbL-0010_RLatLon0.09_PT031H.grib2 2026-04-28 02:50 625K
20260428T00Z_MSC_RDPS_RelativeHumidity_IsbL-0020_RLatLon0.09_PT031H.grib2 2026-04-28 02:50 650K
20260428T00Z_MSC_RDPS_RelativeHumidity_IsbL-0030_RLatLon0.09_PT031H.grib2 2026-04-28 02:50 539K
20260428T00Z_MSC_RDPS_RelativeHumidity_IsbL-0050_RLatLon0.09_PT031H.grib2 2026-04-28 02:50 326K
20260428T00Z_MSC_RDPS_RelativeHumidity_IsbL-0100_RLatLon0.09_PT031H.grib2 2026-04-28 02:50 282K
20260428T00Z_MSC_RDPS_RelativeHumidity_IsbL-0150_RLatLon0.09_PT031H.grib2 2026-04-28 02:50 424K
20260428T00Z_MSC_RDPS_RelativeHumidity_IsbL-0175_RLatLon0.09_PT031H.grib2 2026-04-28 02:50 485K
20260428T00Z_MSC_RDPS_RelativeHumidity_IsbL-0200_RLatLon0.09_PT031H.grib2 2026-04-28 02:50 555K
20260428T00Z_MSC_RDPS_RelativeHumidity_IsbL-0225_RLatLon0.09_PT031H.grib2 2026-04-28 02:50 620K
20260428T00Z_MSC_RDPS_RelativeHumidity_IsbL-0250_RLatLon0.09_PT031H.grib2 2026-04-28 02:50 688K
20260428T00Z_MSC_RDPS_RelativeHumidity_IsbL-0275_RLatLon0.09_PT031H.grib2 2026-04-28 02:50 720K
20260428T00Z_MSC_RDPS_RelativeHumidity_IsbL-0300_RLatLon0.09_PT031H.grib2 2026-04-28 02:50 765K
20260428T00Z_MSC_RDPS_RelativeHumidity_IsbL-0350_RLatLon0.09_PT031H.grib2 2026-04-28 02:50 782K
20260428T00Z_MSC_RDPS_RelativeHumidity_IsbL-0400_RLatLon0.09_PT031H.grib2 2026-04-28 02:50 794K
20260428T00Z_MSC_RDPS_RelativeHumidity_IsbL-0450_RLatLon0.09_PT031H.grib2 2026-04-28 02:50 799K
20260428T00Z_MSC_RDPS_RelativeHumidity_IsbL-0500_RLatLon0.09_PT031H.grib2 2026-04-28 02:50 804K
20260428T00Z_MSC_RDPS_RelativeHumidity_IsbL-0550_RLatLon0.09_PT031H.grib2 2026-04-28 02:50 818K
20260428T00Z_MSC_RDPS_RelativeHumidity_IsbL-0600_RLatLon0.09_PT031H.grib2 2026-04-28 02:50 833K
20260428T00Z_MSC_RDPS_RelativeHumidity_IsbL-0650_RLatLon0.09_PT031H.grib2 2026-04-28 02:50 843K
20260428T00Z_MSC_RDPS_RelativeHumidity_IsbL-0700_RLatLon0.09_PT031H.grib2 2026-04-28 02:50 869K
20260428T00Z_MSC_RDPS_RelativeHumidity_IsbL-0750_RLatLon0.09_PT031H.grib2 2026-04-28 02:50 913K
20260428T00Z_MSC_RDPS_RelativeHumidity_IsbL-0800_RLatLon0.09_PT031H.grib2 2026-04-28 02:50 1.0M
20260428T00Z_MSC_RDPS_RelativeHumidity_IsbL-0850_RLatLon0.09_PT031H.grib2 2026-04-28 02:50 1.0M
20260428T00Z_MSC_RDPS_RelativeHumidity_IsbL-0875_RLatLon0.09_PT031H.grib2 2026-04-28 02:50 1.0M
20260428T00Z_MSC_RDPS_RelativeHumidity_IsbL-0900_RLatLon0.09_PT031H.grib2 2026-04-28 02:50 1.1M
20260428T00Z_MSC_RDPS_RelativeHumidity_IsbL-0925_RLatLon0.09_PT031H.grib2 2026-04-28 02:50 1.1M
20260428T00Z_MSC_RDPS_RelativeHumidity_IsbL-0950_RLatLon0.09_PT031H.grib2 2026-04-28 02:50 1.1M
20260428T00Z_MSC_RDPS_RelativeHumidity_IsbL-0970_RLatLon0.09_PT031H.grib2 2026-04-28 02:50 1.0M
20260428T00Z_MSC_RDPS_RelativeHumidity_IsbL-0985_RLatLon0.09_PT031H.grib2 2026-04-28 02:50 1.0M
20260428T00Z_MSC_RDPS_RelativeHumidity_IsbL-1000_RLatLon0.09_PT031H.grib2 2026-04-28 02:50 1.0M
20260428T00Z_MSC_RDPS_RelativeHumidity_IsbL-1015_RLatLon0.09_PT031H.grib2 2026-04-28 02:50 1.0M
20260428T00Z_MSC_RDPS_Runoff-Accum_Sfc_RLatLon0.09_PT031H.grib2 2026-04-28 02:50 54K
20260428T00Z_MSC_RDPS_SWEATIndex_Sfc_RLatLon0.09_PT031H.grib2 2026-04-28 02:50 2.4M
20260428T00Z_MSC_RDPS_SeeingIndex_EAtm_RLatLon0.09_PT031H.grib2 2026-04-28 02:50 1.0M
20260428T00Z_MSC_RDPS_SensibleHeatNetFlux_Sfc_RLatLon0.09_PT031H.grib2 2026-04-28 02:50 293K
20260428T00Z_MSC_RDPS_ShowalterIndex_IsbL-0500_RLatLon0.09_PT031H.grib2 2026-04-28 02:50 2.6M
20260428T00Z_MSC_RDPS_SkyTransparencyIndex_EAtm_RLatLon0.09_PT031H.grib2 2026-04-28 02:50 689K
20260428T00Z_MSC_RDPS_Snow-Accum1h_Sfc_RLatLon0.09_PT031H.grib2 2026-04-28 02:50 542K
20260428T00Z_MSC_RDPS_Snow-Accum_Sfc_RLatLon0.09_PT031H.grib2 2026-04-28 02:50 752K
20260428T00Z_MSC_RDPS_SnowDensity_Sfc_RLatLon0.09_PT031H.grib2 2026-04-28 02:50 182K
20260428T00Z_MSC_RDPS_SnowDepth_Sfc_RLatLon0.09_PT031H.grib2 2026-04-28 02:50 696K
20260428T00Z_MSC_RDPS_SoilTemp_DBS-0to10cm_RLatLon0.09_PT031H.grib2 2026-04-28 02:50 227K
20260428T00Z_MSC_RDPS_SoilTemp_Sfc_RLatLon0.09_PT031H.grib2 2026-04-28 02:50 265K
20260428T00Z_MSC_RDPS_SoilVolumetricIceContent_Sfc_RLatLon0.09_PT031H.grib2 2026-04-28 02:50 166K
20260428T00Z_MSC_RDPS_SoilVolumetricWaterContent_DBS-0to10cm_RLatLon0.09_PT031H.grib2 2026-04-28 02:50 264K
20260428T00Z_MSC_RDPS_SoilVolumetricWaterContent_DBS-0to1cm_RLatLon0.09_PT031H.grib2 2026-04-28 02:50 335K
20260428T00Z_MSC_RDPS_SpecificHumidity_AGL-120m_RLatLon0.09_PT031H.grib2 2026-04-28 02:50 482K
20260428T00Z_MSC_RDPS_SpecificHumidity_AGL-2m_RLatLon0.09_PT031H.grib2 2026-04-28 02:50 643K
20260428T00Z_MSC_RDPS_SpecificHumidity_AGL-40m_RLatLon0.09_PT031H.grib2 2026-04-28 02:50 485K
20260428T00Z_MSC_RDPS_SpecificHumidity_AGL-80m_RLatLon0.09_PT031H.grib2 2026-04-28 02:50 483K
20260428T00Z_MSC_RDPS_SpecificHumidity_IsbL-0001_RLatLon0.09_PT031H.grib2 2026-04-28 02:50 335K
20260428T00Z_MSC_RDPS_SpecificHumidity_IsbL-0005_RLatLon0.09_PT031H.grib2 2026-04-28 02:50 360K
20260428T00Z_MSC_RDPS_SpecificHumidity_IsbL-0010_RLatLon0.09_PT031H.grib2 2026-04-28 02:50 401K
20260428T00Z_MSC_RDPS_SpecificHumidity_IsbL-0020_RLatLon0.09_PT031H.grib2 2026-04-28 02:50 389K
20260428T00Z_MSC_RDPS_SpecificHumidity_IsbL-0030_RLatLon0.09_PT031H.grib2 2026-04-28 02:50 371K
20260428T00Z_MSC_RDPS_SpecificHumidity_IsbL-0050_RLatLon0.09_PT031H.grib2 2026-04-28 02:50 464K
20260428T00Z_MSC_RDPS_SpecificHumidity_IsbL-0100_RLatLon0.09_PT031H.grib2 2026-04-28 02:50 452K
20260428T00Z_MSC_RDPS_SpecificHumidity_IsbL-0150_RLatLon0.09_PT031H.grib2 2026-04-28 02:50 491K
20260428T00Z_MSC_RDPS_SpecificHumidity_IsbL-0175_RLatLon0.09_PT031H.grib2 2026-04-28 02:50 440K
20260428T00Z_MSC_RDPS_SpecificHumidity_IsbL-0200_RLatLon0.09_PT031H.grib2 2026-04-28 02:50 469K
20260428T00Z_MSC_RDPS_SpecificHumidity_IsbL-0225_RLatLon0.09_PT031H.grib2 2026-04-28 02:50 454K
20260428T00Z_MSC_RDPS_SpecificHumidity_IsbL-0250_RLatLon0.09_PT031H.grib2 2026-04-28 02:50 512K
20260428T00Z_MSC_RDPS_SpecificHumidity_IsbL-0275_RLatLon0.09_PT031H.grib2 2026-04-28 02:50 473K
20260428T00Z_MSC_RDPS_SpecificHumidity_IsbL-0300_RLatLon0.09_PT031H.grib2 2026-04-28 02:50 545K
20260428T00Z_MSC_RDPS_SpecificHumidity_IsbL-0350_RLatLon0.09_PT031H.grib2 2026-04-28 02:50 537K
20260428T00Z_MSC_RDPS_SpecificHumidity_IsbL-0400_RLatLon0.09_PT031H.grib2 2026-04-28 02:50 520K
20260428T00Z_MSC_RDPS_SpecificHumidity_IsbL-0450_RLatLon0.09_PT031H.grib2 2026-04-28 02:50 573K
20260428T00Z_MSC_RDPS_SpecificHumidity_IsbL-0500_RLatLon0.09_PT031H.grib2 2026-04-28 02:50 509K
20260428T00Z_MSC_RDPS_SpecificHumidity_IsbL-0550_RLatLon0.09_PT031H.grib2 2026-04-28 02:50 580K
20260428T00Z_MSC_RDPS_SpecificHumidity_IsbL-0600_RLatLon0.09_PT031H.grib2 2026-04-28 02:50 630K
20260428T00Z_MSC_RDPS_SpecificHumidity_IsbL-0650_RLatLon0.09_PT031H.grib2 2026-04-28 02:50 547K
20260428T00Z_MSC_RDPS_SpecificHumidity_IsbL-0700_RLatLon0.09_PT031H.grib2 2026-04-28 02:50 591K
20260428T00Z_MSC_RDPS_SpecificHumidity_IsbL-0750_RLatLon0.09_PT031H.grib2 2026-04-28 02:50 643K
20260428T00Z_MSC_RDPS_SpecificHumidity_IsbL-0800_RLatLon0.09_PT031H.grib2 2026-04-28 02:50 720K
20260428T00Z_MSC_RDPS_SpecificHumidity_IsbL-0850_RLatLon0.09_PT031H.grib2 2026-04-28 02:50 791K
20260428T00Z_MSC_RDPS_SpecificHumidity_IsbL-0875_RLatLon0.09_PT031H.grib2 2026-04-28 02:50 817K
20260428T00Z_MSC_RDPS_SpecificHumidity_IsbL-0900_RLatLon0.09_PT031H.grib2 2026-04-28 02:50 830K
20260428T00Z_MSC_RDPS_SpecificHumidity_IsbL-0925_RLatLon0.09_PT031H.grib2 2026-04-28 02:50 832K
20260428T00Z_MSC_RDPS_SpecificHumidity_IsbL-0950_RLatLon0.09_PT031H.grib2 2026-04-28 02:50 833K
20260428T00Z_MSC_RDPS_SpecificHumidity_IsbL-0970_RLatLon0.09_PT031H.grib2 2026-04-28 02:50 821K
20260428T00Z_MSC_RDPS_SpecificHumidity_IsbL-0985_RLatLon0.09_PT031H.grib2 2026-04-28 02:50 671K
20260428T00Z_MSC_RDPS_SpecificHumidity_IsbL-1000_RLatLon0.09_PT031H.grib2 2026-04-28 02:50 663K
20260428T00Z_MSC_RDPS_SpecificHumidity_IsbL-1015_RLatLon0.09_PT031H.grib2 2026-04-28 02:50 655K
20260428T00Z_MSC_RDPS_SpecificHumidity_Sfc_RLatLon0.09_PT031H.grib2 2026-04-28 02:50 290K
20260428T00Z_MSC_RDPS_StormRelativeHelicity_EtaL-10000_RLatLon0.09_PT031H.grib2 2026-04-28 02:50 1.1M
20260428T00Z_MSC_RDPS_StormSeverityIndex_EtaL-10000_RLatLon0.09_PT031H.grib2 2026-04-28 02:50 1.1M
20260428T00Z_MSC_RDPS_Thickness_IsbL-0850to0700_RLatLon0.09_PT031H.grib2 2026-04-28 02:50 177K
20260428T00Z_MSC_RDPS_Thickness_IsbL-1000to0500_RLatLon0.09_PT031H.grib2 2026-04-28 02:50 198K
20260428T00Z_MSC_RDPS_Thickness_IsbL-1000to0850_RLatLon0.09_PT031H.grib2 2026-04-28 02:50 259K
20260428T00Z_MSC_RDPS_TotalCloudCover_Sfc_RLatLon0.09_PT031H.grib2 2026-04-28 02:50 649K
20260428T00Z_MSC_RDPS_TotalTotalsIndex_Sfc_RLatLon0.09_PT031H.grib2 2026-04-28 02:50 2.4M
20260428T00Z_MSC_RDPS_UVIndex-ClearSky_Sfc_RLatLon0.09_PT031H.grib2 2026-04-28 02:50 121K
20260428T00Z_MSC_RDPS_UVIndex_Sfc_RLatLon0.09_PT031H.grib2 2026-04-28 02:50 188K
20260428T00Z_MSC_RDPS_UpwardLongwaveRadiationFlux_NTAtm_RLatLon0.09_PT031H.grib2 2026-04-28 02:50 485K
20260428T00Z_MSC_RDPS_UpwardShortwaveRadiationFlux_NTAtm_RLatLon0.09_PT031H.grib2 2026-04-28 02:50 163K
20260428T00Z_MSC_RDPS_VerticalVelocity_IsbL-0250_RLatLon0.09_PT031H.grib2 2026-04-28 02:50 439K
20260428T00Z_MSC_RDPS_VerticalVelocity_IsbL-0500_RLatLon0.09_PT031H.grib2 2026-04-28 02:50 545K
20260428T00Z_MSC_RDPS_VerticalVelocity_IsbL-0700_RLatLon0.09_PT031H.grib2 2026-04-28 02:50 587K
20260428T00Z_MSC_RDPS_VerticalVelocity_IsbL-0850_RLatLon0.09_PT031H.grib2 2026-04-28 02:50 683K
20260428T00Z_MSC_RDPS_VerticalWindShear_EtaL-6500_RLatLon0.09_PT031H.grib2 2026-04-28 02:50 1.2M
20260428T00Z_MSC_RDPS_WindChill_Sfc_RLatLon0.09_PT031H.grib2 2026-04-28 02:50 1.1M
20260428T00Z_MSC_RDPS_WindDir_AGL-10m_RLatLon0.09_PT031H.grib2 2026-04-28 02:50 966K
20260428T00Z_MSC_RDPS_WindDir_AGL-120m_RLatLon0.09_PT031H.grib2 2026-04-28 02:50 604K
20260428T00Z_MSC_RDPS_WindDir_AGL-40m_RLatLon0.09_PT031H.grib2 2026-04-28 02:50 635K
20260428T00Z_MSC_RDPS_WindDir_AGL-80m_RLatLon0.09_PT031H.grib2 2026-04-28 02:50 616K
20260428T00Z_MSC_RDPS_WindDir_IsbL-0001_RLatLon0.09_PT031H.grib2 2026-04-28 02:50 319K
20260428T00Z_MSC_RDPS_WindDir_IsbL-0005_RLatLon0.09_PT031H.grib2 2026-04-28 02:50 364K
20260428T00Z_MSC_RDPS_WindDir_IsbL-0010_RLatLon0.09_PT031H.grib2 2026-04-28 02:50 389K
20260428T00Z_MSC_RDPS_WindDir_IsbL-0020_RLatLon0.09_PT031H.grib2 2026-04-28 02:50 418K
20260428T00Z_MSC_RDPS_WindDir_IsbL-0030_RLatLon0.09_PT031H.grib2 2026-04-28 02:50 417K
20260428T00Z_MSC_RDPS_WindDir_IsbL-0050_RLatLon0.09_PT031H.grib2 2026-04-28 02:50 426K
20260428T00Z_MSC_RDPS_WindDir_IsbL-0100_RLatLon0.09_PT031H.grib2 2026-04-28 02:50 423K
20260428T00Z_MSC_RDPS_WindDir_IsbL-0150_RLatLon0.09_PT031H.grib2 2026-04-28 02:50 421K
20260428T00Z_MSC_RDPS_WindDir_IsbL-0175_RLatLon0.09_PT031H.grib2 2026-04-28 02:50 436K
20260428T00Z_MSC_RDPS_WindDir_IsbL-0200_RLatLon0.09_PT031H.grib2 2026-04-28 02:50 448K
20260428T00Z_MSC_RDPS_WindDir_IsbL-0225_RLatLon0.09_PT031H.grib2 2026-04-28 02:50 451K
20260428T00Z_MSC_RDPS_WindDir_IsbL-0250_RLatLon0.09_PT031H.grib2 2026-04-28 02:50 455K
20260428T00Z_MSC_RDPS_WindDir_IsbL-0275_RLatLon0.09_PT031H.grib2 2026-04-28 02:50 477K
20260428T00Z_MSC_RDPS_WindDir_IsbL-0300_RLatLon0.09_PT031H.grib2 2026-04-28 02:50 472K
20260428T00Z_MSC_RDPS_WindDir_IsbL-0350_RLatLon0.09_PT031H.grib2 2026-04-28 02:50 495K
20260428T00Z_MSC_RDPS_WindDir_IsbL-0400_RLatLon0.09_PT031H.grib2 2026-04-28 02:50 518K
20260428T00Z_MSC_RDPS_WindDir_IsbL-0450_RLatLon0.09_PT031H.grib2 2026-04-28 02:50 533K
20260428T00Z_MSC_RDPS_WindDir_IsbL-0500_RLatLon0.09_PT031H.grib2 2026-04-28 02:50 549K
20260428T00Z_MSC_RDPS_WindDir_IsbL-0550_RLatLon0.09_PT031H.grib2 2026-04-28 02:50 564K
20260428T00Z_MSC_RDPS_WindDir_IsbL-0600_RLatLon0.09_PT031H.grib2 2026-04-28 02:50 590K
20260428T00Z_MSC_RDPS_WindDir_IsbL-0650_RLatLon0.09_PT031H.grib2 2026-04-28 02:50 627K
20260428T00Z_MSC_RDPS_WindDir_IsbL-0700_RLatLon0.09_PT031H.grib2 2026-04-28 02:50 668K
20260428T00Z_MSC_RDPS_WindDir_IsbL-0750_RLatLon0.09_PT031H.grib2 2026-04-28 02:50 713K
20260428T00Z_MSC_RDPS_WindDir_IsbL-0800_RLatLon0.09_PT031H.grib2 2026-04-28 02:50 776K
20260428T00Z_MSC_RDPS_WindDir_IsbL-0850_RLatLon0.09_PT031H.grib2 2026-04-28 02:50 854K
20260428T00Z_MSC_RDPS_WindDir_IsbL-0875_RLatLon0.09_PT031H.grib2 2026-04-28 02:50 882K
20260428T00Z_MSC_RDPS_WindDir_IsbL-0900_RLatLon0.09_PT031H.grib2 2026-04-28 02:50 898K
20260428T00Z_MSC_RDPS_WindDir_IsbL-0925_RLatLon0.09_PT031H.grib2 2026-04-28 02:50 910K
20260428T00Z_MSC_RDPS_WindDir_IsbL-0950_RLatLon0.09_PT031H.grib2 2026-04-28 02:50 911K
20260428T00Z_MSC_RDPS_WindDir_IsbL-0970_RLatLon0.09_PT031H.grib2 2026-04-28 02:50 918K
20260428T00Z_MSC_RDPS_WindDir_IsbL-0985_RLatLon0.09_PT031H.grib2 2026-04-28 02:50 926K
20260428T00Z_MSC_RDPS_WindDir_IsbL-1000_RLatLon0.09_PT031H.grib2 2026-04-28 02:50 941K
20260428T00Z_MSC_RDPS_WindDir_IsbL-1015_RLatLon0.09_PT031H.grib2 2026-04-28 02:50 958K
20260428T00Z_MSC_RDPS_WindGust-Max_AGL-10m_RLatLon0.09_PT031H.grib2 2026-04-28 02:50 946K
20260428T00Z_MSC_RDPS_WindGust-Min_AGL-10m_RLatLon0.09_PT031H.grib2 2026-04-28 02:50 971K
20260428T00Z_MSC_RDPS_WindGust_AGL-10m_RLatLon0.09_PT031H.grib2 2026-04-28 02:50 940K
20260428T00Z_MSC_RDPS_WindSpeed_AGL-10m_RLatLon0.09_PT031H.grib2 2026-04-28 02:50 839K
20260428T00Z_MSC_RDPS_WindSpeed_AGL-120m_RLatLon0.09_PT031H.grib2 2026-04-28 02:50 549K
20260428T00Z_MSC_RDPS_WindSpeed_AGL-40m_RLatLon0.09_PT031H.grib2 2026-04-28 02:50 551K
20260428T00Z_MSC_RDPS_WindSpeed_AGL-80m_RLatLon0.09_PT031H.grib2 2026-04-28 02:50 550K
20260428T00Z_MSC_RDPS_WindSpeed_IsbL-0001_RLatLon0.09_PT031H.grib2 2026-04-28 02:50 255K
20260428T00Z_MSC_RDPS_WindSpeed_IsbL-0005_RLatLon0.09_PT031H.grib2 2026-04-28 02:50 300K
20260428T00Z_MSC_RDPS_WindSpeed_IsbL-0010_RLatLon0.09_PT031H.grib2 2026-04-28 02:50 311K
20260428T00Z_MSC_RDPS_WindSpeed_IsbL-0020_RLatLon0.09_PT031H.grib2 2026-04-28 02:50 326K
20260428T00Z_MSC_RDPS_WindSpeed_IsbL-0030_RLatLon0.09_PT031H.grib2 2026-04-28 02:50 325K
20260428T00Z_MSC_RDPS_WindSpeed_IsbL-0050_RLatLon0.09_PT031H.grib2 2026-04-28 02:50 461K
20260428T00Z_MSC_RDPS_WindSpeed_IsbL-0100_RLatLon0.09_PT031H.grib2 2026-04-28 02:50 449K
20260428T00Z_MSC_RDPS_WindSpeed_IsbL-0150_RLatLon0.09_PT031H.grib2 2026-04-28 02:50 389K
20260428T00Z_MSC_RDPS_WindSpeed_IsbL-0175_RLatLon0.09_PT031H.grib2 2026-04-28 02:50 436K
20260428T00Z_MSC_RDPS_WindSpeed_IsbL-0200_RLatLon0.09_PT031H.grib2 2026-04-28 02:50 453K
20260428T00Z_MSC_RDPS_WindSpeed_IsbL-0225_RLatLon0.09_PT031H.grib2 2026-04-28 02:50 458K
20260428T00Z_MSC_RDPS_WindSpeed_IsbL-0250_RLatLon0.09_PT031H.grib2 2026-04-28 02:50 463K
20260428T00Z_MSC_RDPS_WindSpeed_IsbL-0275_RLatLon0.09_PT031H.grib2 2026-04-28 02:50 482K
20260428T00Z_MSC_RDPS_WindSpeed_IsbL-0300_RLatLon0.09_PT031H.grib2 2026-04-28 02:50 480K
20260428T00Z_MSC_RDPS_WindSpeed_IsbL-0350_RLatLon0.09_PT031H.grib2 2026-04-28 02:50 490K
20260428T00Z_MSC_RDPS_WindSpeed_IsbL-0400_RLatLon0.09_PT031H.grib2 2026-04-28 02:50 473K
20260428T00Z_MSC_RDPS_WindSpeed_IsbL-0450_RLatLon0.09_PT031H.grib2 2026-04-28 02:50 470K
20260428T00Z_MSC_RDPS_WindSpeed_IsbL-0500_RLatLon0.09_PT031H.grib2 2026-04-28 02:50 469K
20260428T00Z_MSC_RDPS_WindSpeed_IsbL-0550_RLatLon0.09_PT031H.grib2 2026-04-28 02:50 467K
20260428T00Z_MSC_RDPS_WindSpeed_IsbL-0600_RLatLon0.09_PT031H.grib2 2026-04-28 02:50 591K
20260428T00Z_MSC_RDPS_WindSpeed_IsbL-0650_RLatLon0.09_PT031H.grib2 2026-04-28 02:50 609K
20260428T00Z_MSC_RDPS_WindSpeed_IsbL-0700_RLatLon0.09_PT031H.grib2 2026-04-28 02:50 632K
20260428T00Z_MSC_RDPS_WindSpeed_IsbL-0750_RLatLon0.09_PT031H.grib2 2026-04-28 02:50 659K
20260428T00Z_MSC_RDPS_WindSpeed_IsbL-0800_RLatLon0.09_PT031H.grib2 2026-04-28 02:50 704K
20260428T00Z_MSC_RDPS_WindSpeed_IsbL-0850_RLatLon0.09_PT031H.grib2 2026-04-28 02:50 763K
20260428T00Z_MSC_RDPS_WindSpeed_IsbL-0875_RLatLon0.09_PT031H.grib2 2026-04-28 02:50 783K
20260428T00Z_MSC_RDPS_WindSpeed_IsbL-0900_RLatLon0.09_PT031H.grib2 2026-04-28 02:50 845K
20260428T00Z_MSC_RDPS_WindSpeed_IsbL-0925_RLatLon0.09_PT031H.grib2 2026-04-28 02:50 858K
20260428T00Z_MSC_RDPS_WindSpeed_IsbL-0950_RLatLon0.09_PT031H.grib2 2026-04-28 02:50 858K
20260428T00Z_MSC_RDPS_WindSpeed_IsbL-0970_RLatLon0.09_PT031H.grib2 2026-04-28 02:50 860K
20260428T00Z_MSC_RDPS_WindSpeed_IsbL-0985_RLatLon0.09_PT031H.grib2 2026-04-28 02:50 854K
20260428T00Z_MSC_RDPS_WindSpeed_IsbL-1000_RLatLon0.09_PT031H.grib2 2026-04-28 02:50 848K
20260428T00Z_MSC_RDPS_WindSpeed_IsbL-1015_RLatLon0.09_PT031H.grib2 2026-04-28 02:50 840K
20260428T00Z_MSC_RDPS_WindU_AGL-10m_RLatLon0.09_PT031H.grib2 2026-04-28 02:50 376K
20260428T00Z_MSC_RDPS_WindU_AGL-120m_RLatLon0.09_PT031H.grib2 2026-04-28 02:50 416K
20260428T00Z_MSC_RDPS_WindU_AGL-40m_RLatLon0.09_PT031H.grib2 2026-04-28 02:50 418K
20260428T00Z_MSC_RDPS_WindU_AGL-80m_RLatLon0.09_PT031H.grib2 2026-04-28 02:50 418K
20260428T00Z_MSC_RDPS_WindU_IsbL-0001_RLatLon0.09_PT031H.grib2 2026-04-28 02:50 248K
20260428T00Z_MSC_RDPS_WindU_IsbL-0005_RLatLon0.09_PT031H.grib2 2026-04-28 02:50 334K
20260428T00Z_MSC_RDPS_WindU_IsbL-0010_RLatLon0.09_PT031H.grib2 2026-04-28 02:50 343K
20260428T00Z_MSC_RDPS_WindU_IsbL-0020_RLatLon0.09_PT031H.grib2 2026-04-28 02:50 356K
20260428T00Z_MSC_RDPS_WindU_IsbL-0030_RLatLon0.09_PT031H.grib2 2026-04-28 02:50 354K
20260428T00Z_MSC_RDPS_WindU_IsbL-0050_RLatLon0.09_PT031H.grib2 2026-04-28 02:50 383K
20260428T00Z_MSC_RDPS_WindU_IsbL-0100_RLatLon0.09_PT031H.grib2 2026-04-28 02:50 344K
20260428T00Z_MSC_RDPS_WindU_IsbL-0150_RLatLon0.09_PT031H.grib2 2026-04-28 02:50 405K
20260428T00Z_MSC_RDPS_WindU_IsbL-0175_RLatLon0.09_PT031H.grib2 2026-04-28 02:50 428K
20260428T00Z_MSC_RDPS_WindU_IsbL-0200_RLatLon0.09_PT031H.grib2 2026-04-28 02:50 344K
20260428T00Z_MSC_RDPS_WindU_IsbL-0225_RLatLon0.09_PT031H.grib2 2026-04-28 02:50 349K
20260428T00Z_MSC_RDPS_WindU_IsbL-0250_RLatLon0.09_PT031H.grib2 2026-04-28 02:50 352K
20260428T00Z_MSC_RDPS_WindU_IsbL-0275_RLatLon0.09_PT031H.grib2 2026-04-28 02:50 367K
20260428T00Z_MSC_RDPS_WindU_IsbL-0300_RLatLon0.09_PT031H.grib2 2026-04-28 02:50 363K
20260428T00Z_MSC_RDPS_WindU_IsbL-0350_RLatLon0.09_PT031H.grib2 2026-04-28 02:50 371K
20260428T00Z_MSC_RDPS_WindU_IsbL-0400_RLatLon0.09_PT031H.grib2 2026-04-28 02:50 475K
20260428T00Z_MSC_RDPS_WindU_IsbL-0450_RLatLon0.09_PT031H.grib2 2026-04-28 02:50 473K
20260428T00Z_MSC_RDPS_WindU_IsbL-0500_RLatLon0.09_PT031H.grib2 2026-04-28 02:50 473K
20260428T00Z_MSC_RDPS_WindU_IsbL-0550_RLatLon0.09_PT031H.grib2 2026-04-28 02:50 454K
20260428T00Z_MSC_RDPS_WindU_IsbL-0600_RLatLon0.09_PT031H.grib2 2026-04-28 02:50 460K
20260428T00Z_MSC_RDPS_WindU_IsbL-0650_RLatLon0.09_PT031H.grib2 2026-04-28 02:50 478K
20260428T00Z_MSC_RDPS_WindU_IsbL-0700_RLatLon0.09_PT031H.grib2 2026-04-28 02:50 622K
20260428T00Z_MSC_RDPS_WindU_IsbL-0750_RLatLon0.09_PT031H.grib2 2026-04-28 02:50 525K
20260428T00Z_MSC_RDPS_WindU_IsbL-0800_RLatLon0.09_PT031H.grib2 2026-04-28 02:50 565K
20260428T00Z_MSC_RDPS_WindU_IsbL-0850_RLatLon0.09_PT031H.grib2 2026-04-28 02:50 628K
20260428T00Z_MSC_RDPS_WindU_IsbL-0875_RLatLon0.09_PT031H.grib2 2026-04-28 02:50 635K
20260428T00Z_MSC_RDPS_WindU_IsbL-0900_RLatLon0.09_PT031H.grib2 2026-04-28 02:50 647K
20260428T00Z_MSC_RDPS_WindU_IsbL-0925_RLatLon0.09_PT031H.grib2 2026-04-28 02:50 654K
20260428T00Z_MSC_RDPS_WindU_IsbL-0950_RLatLon0.09_PT031H.grib2 2026-04-28 02:50 651K
20260428T00Z_MSC_RDPS_WindU_IsbL-0970_RLatLon0.09_PT031H.grib2 2026-04-28 02:50 649K
20260428T00Z_MSC_RDPS_WindU_IsbL-0985_RLatLon0.09_PT031H.grib2 2026-04-28 02:50 644K
20260428T00Z_MSC_RDPS_WindU_IsbL-1000_RLatLon0.09_PT031H.grib2 2026-04-28 02:50 640K
20260428T00Z_MSC_RDPS_WindU_IsbL-1015_RLatLon0.09_PT031H.grib2 2026-04-28 02:50 634K
20260428T00Z_MSC_RDPS_WindV_AGL-10m_RLatLon0.09_PT031H.grib2 2026-04-28 02:50 430K
20260428T00Z_MSC_RDPS_WindV_AGL-120m_RLatLon0.09_PT031H.grib2 2026-04-28 02:50 534K
20260428T00Z_MSC_RDPS_WindV_AGL-40m_RLatLon0.09_PT031H.grib2 2026-04-28 02:50 536K
20260428T00Z_MSC_RDPS_WindV_AGL-80m_RLatLon0.09_PT031H.grib2 2026-04-28 02:50 534K
20260428T00Z_MSC_RDPS_WindV_IsbL-0001_RLatLon0.09_PT031H.grib2 2026-04-28 02:50 295K
20260428T00Z_MSC_RDPS_WindV_IsbL-0005_RLatLon0.09_PT031H.grib2 2026-04-28 02:50 291K
20260428T00Z_MSC_RDPS_WindV_IsbL-0010_RLatLon0.09_PT031H.grib2 2026-04-28 02:50 303K
20260428T00Z_MSC_RDPS_WindV_IsbL-0020_RLatLon0.09_PT031H.grib2 2026-04-28 02:50 320K
20260428T00Z_MSC_RDPS_WindV_IsbL-0030_RLatLon0.09_PT031H.grib2 2026-04-28 02:50 318K
20260428T00Z_MSC_RDPS_WindV_IsbL-0050_RLatLon0.09_PT031H.grib2 2026-04-28 02:50 349K
20260428T00Z_MSC_RDPS_WindV_IsbL-0100_RLatLon0.09_PT031H.grib2 2026-04-28 02:50 338K
20260428T00Z_MSC_RDPS_WindV_IsbL-0150_RLatLon0.09_PT031H.grib2 2026-04-28 02:50 403K
20260428T00Z_MSC_RDPS_WindV_IsbL-0175_RLatLon0.09_PT031H.grib2 2026-04-28 02:50 332K
20260428T00Z_MSC_RDPS_WindV_IsbL-0200_RLatLon0.09_PT031H.grib2 2026-04-28 02:50 345K
20260428T00Z_MSC_RDPS_WindV_IsbL-0225_RLatLon0.09_PT031H.grib2 2026-04-28 02:50 348K
20260428T00Z_MSC_RDPS_WindV_IsbL-0250_RLatLon0.09_PT031H.grib2 2026-04-28 02:50 375K
20260428T00Z_MSC_RDPS_WindV_IsbL-0275_RLatLon0.09_PT031H.grib2 2026-04-28 02:50 388K
20260428T00Z_MSC_RDPS_WindV_IsbL-0300_RLatLon0.09_PT031H.grib2 2026-04-28 02:50 386K
20260428T00Z_MSC_RDPS_WindV_IsbL-0350_RLatLon0.09_PT031H.grib2 2026-04-28 02:50 371K
20260428T00Z_MSC_RDPS_WindV_IsbL-0400_RLatLon0.09_PT031H.grib2 2026-04-28 02:50 372K
20260428T00Z_MSC_RDPS_WindV_IsbL-0450_RLatLon0.09_PT031H.grib2 2026-04-28 02:50 475K
20260428T00Z_MSC_RDPS_WindV_IsbL-0500_RLatLon0.09_PT031H.grib2 2026-04-28 02:50 474K
20260428T00Z_MSC_RDPS_WindV_IsbL-0550_RLatLon0.09_PT031H.grib2 2026-04-28 02:50 472K
20260428T00Z_MSC_RDPS_WindV_IsbL-0600_RLatLon0.09_PT031H.grib2 2026-04-28 02:50 477K
20260428T00Z_MSC_RDPS_WindV_IsbL-0650_RLatLon0.09_PT031H.grib2 2026-04-28 02:50 493K
20260428T00Z_MSC_RDPS_WindV_IsbL-0700_RLatLon0.09_PT031H.grib2 2026-04-28 02:50 512K
20260428T00Z_MSC_RDPS_WindV_IsbL-0750_RLatLon0.09_PT031H.grib2 2026-04-28 02:50 535K
20260428T00Z_MSC_RDPS_WindV_IsbL-0800_RLatLon0.09_PT031H.grib2 2026-04-28 02:50 573K
20260428T00Z_MSC_RDPS_WindV_IsbL-0850_RLatLon0.09_PT031H.grib2 2026-04-28 02:50 624K
20260428T00Z_MSC_RDPS_WindV_IsbL-0875_RLatLon0.09_PT031H.grib2 2026-04-28 02:50 641K
20260428T00Z_MSC_RDPS_WindV_IsbL-0900_RLatLon0.09_PT031H.grib2 2026-04-28 02:50 645K
20260428T00Z_MSC_RDPS_WindV_IsbL-0925_RLatLon0.09_PT031H.grib2 2026-04-28 02:50 654K
20260428T00Z_MSC_RDPS_WindV_IsbL-0950_RLatLon0.09_PT031H.grib2 2026-04-28 02:50 654K
20260428T00Z_MSC_RDPS_WindV_IsbL-0970_RLatLon0.09_PT031H.grib2 2026-04-28 02:50 795K
20260428T00Z_MSC_RDPS_WindV_IsbL-0985_RLatLon0.09_PT031H.grib2 2026-04-28 02:50 789K
20260428T00Z_MSC_RDPS_WindV_IsbL-1000_RLatLon0.09_PT031H.grib2 2026-04-28 02:50 783K
20260428T00Z_MSC_RDPS_WindV_IsbL-1015_RLatLon0.09_PT031H.grib2 2026-04-28 02:50 822K